Location: Mountain View
(37.3861°N, 122.0839°W)
Time: 18:48:04
(UTC-07:00)

Hubble Space Telescope - Visible Passes

Search period start: 16 October 2018 00:00
Search period end: 26 October 2018 00:00
Orbit: 537 x 541 km, 28.5° (Epoch: 16 October)

Date Brightness Start Highest point End Pass type
(mag) Time Alt. Az. Time Alt. Az. Time Alt. Az.
16 Oct 3.0 05:50:04 12° SSW 05:52:06 17° SSE 05:54:48 10° SE visible
17 Oct 2.7 05:40:25 17° S 05:41:36 19° S 05:44:31 10° ESE visible
18 Oct 2.6 05:30:43 20° S 05:31:06 20° S 05:34:12 10° ESE visible
19 Oct 2.6 05:21:00 22° SSE 05:21:00 22° SSE 05:23:49 10° ESE visible
20 Oct 2.8 05:11:15 20° SSE 05:11:15 20° SSE 05:13:23 10° ESE visible
20 Oct 2.7 06:47:43 10° WSW 06:50:47 20° S 06:53:50 10° SE visible
21 Oct 3.1 05:01:31 17° SE 05:01:31 17° SE 05:02:56 10° SE visible
21 Oct 2.7 06:37:24 10° SW 06:40:16 18° SSW 06:43:08 10° SSE visible
22 Oct 3.5 04:51:47 13° SE 04:51:47 13° SE 04:52:27 10° SE visible
22 Oct 2.8 06:27:09 10° SW 06:29:45 16° SSW 06:32:23 10° SSE visible
23 Oct 2.9 06:17:25 11° SW 06:19:14 14° SSW 06:21:28 10° SSE visible
24 Oct 3.0 06:07:44 11° SSW 06:08:43 12° SSW 06:10:22 10° S visible
